Tracking 25710 objects as of 5-Jul-2022
HD Live streaming from Space Station
objects crossing your sky now

STARLINK-1648

Track STARLINK-1648 now!
10-day predictions
STARLINK-1648 is classified as:


NORAD ID: 46533
Int'l Code: 2020-070B
Perigee: 553.2 km
Apogee: 555.6 km
Inclination: 53.1 °
Period: 95.6 minutes
Semi major axis: 6925 km
RCS: Unknown
Launch date: October 6, 2020
Source: United States (US)
Launch site: AIR FORCE EASTERN TEST RANGE (AFETR)
aabbcc
Your satellite tracking list
Your tracking list is empty




NASA's NSSDC Master Catalog

Two Line Element Set (TLE):
1 46533U 20070B   22186.10359864 -.00000581  00000-0 -20123-4 0  9993
2 46533  53.0550  88.2000 0001745  64.6826 295.4343 15.06394018 97012
Source of the keplerian elements: AFSPC